Year,Month,Day,Hour,Minute,Value (Times are PST for temperature in C)
2007,10,14,00,00,7.90
2007,10,14,00,01,8.00
2007,10,14,00,02,8.00
2007,10,14,00,03,8.10
2007,10,14,00,04,8.10
2007,10,14,00,05,8.10
2007,10,14,00,06,8.10
2007,10,14,00,07,8.20
2007,10,14,00,08,8.20
2007,10,14,00,09,8.20
2007,10,14,00,10,8.20
2007,10,14,00,11,8.30
2007,10,14,00,12,8.30
2007,10,14,00,13,8.30
2007,10,14,00,14,8.30
2007,10,14,00,15,8.30
2007,10,14,00,16,8.40
2007,10,14,00,17,8.40
2007,10,14,00,18,8.40
2007,10,14,00,19,8.50
2007,10,14,00,20,8.50
2007,10,14,00,21,8.50
2007,10,14,00,22,8.50
2007,10,14,00,23,8.60
2007,10,14,00,24,8.60
2007,10,14,00,25,8.60
2007,10,14,00,26,8.60
2007,10,14,00,27,8.60
2007,10,14,00,28,8.60
2007,10,14,00,29,8.60
2007,10,14,00,30,8.60
2007,10,14,00,31,8.60
2007,10,14,00,32,8.60
2007,10,14,00,33,8.70
2007,10,14,00,34,8.70
2007,10,14,00,35,8.70
2007,10,14,00,36,8.70
2007,10,14,00,37,8.70
2007,10,14,00,38,8.70
2007,10,14,00,39,8.70
2007,10,14,00,40,8.70
2007,10,14,00,41,8.70
2007,10,14,00,42,8.70
2007,10,14,00,43,8.70
2007,10,14,00,44,8.70
2007,10,14,00,45,8.70
2007,10,14,00,46,8.80
2007,10,14,00,47,8.80
2007,10,14,00,48,8.80
2007,10,14,00,49,8.80
2007,10,14,00,50,8.80
2007,10,14,00,51,8.80
2007,10,14,00,52,8.80
2007,10,14,00,53,8.80
2007,10,14,00,54,8.80
2007,10,14,00,55,8.80
2007,10,14,00,56,8.90
2007,10,14,00,57,8.90
2007,10,14,00,58,8.90
2007,10,14,00,59,8.90
2007,10,14,01,00,8.90
2007,10,14,01,01,8.90
2007,10,14,01,02,8.90
2007,10,14,01,03,8.90
2007,10,14,01,04,8.90
2007,10,14,01,05,8.90
2007,10,14,01,06,9.00
2007,10,14,01,07,8.90
2007,10,14,01,08,8.90
2007,10,14,01,09,8.90
2007,10,14,01,10,8.90
2007,10,14,01,11,8.90
2007,10,14,01,12,8.90
2007,10,14,01,13,8.90
2007,10,14,01,14,8.90
2007,10,14,01,15,8.90
2007,10,14,01,16,8.90
2007,10,14,01,17,8.90
2007,10,14,01,18,8.90
2007,10,14,01,19,8.90
2007,10,14,01,20,8.90
2007,10,14,01,21,8.90
2007,10,14,01,22,8.90
2007,10,14,01,23,8.90
2007,10,14,01,24,8.90
2007,10,14,01,25,8.90
2007,10,14,01,26,8.90
2007,10,14,01,27,8.90
2007,10,14,01,28,8.90
2007,10,14,01,29,8.90
2007,10,14,01,30,8.90
2007,10,14,01,31,8.90
2007,10,14,01,32,8.90
2007,10,14,01,33,9.00
2007,10,14,01,34,9.00
2007,10,14,01,35,9.00
2007,10,14,01,36,9.00
2007,10,14,01,37,9.10
2007,10,14,01,38,9.10
2007,10,14,01,39,9.10
2007,10,14,01,40,9.10
2007,10,14,01,41,9.10
2007,10,14,01,42,9.10
2007,10,14,01,43,9.10
2007,10,14,01,44,9.10
2007,10,14,01,45,9.10
2007,10,14,01,46,9.10
2007,10,14,01,47,9.10
2007,10,14,01,48,9.10
2007,10,14,01,49,9.10
2007,10,14,01,50,9.10
2007,10,14,01,51,9.10
2007,10,14,01,52,9.10
2007,10,14,01,53,9.10
2007,10,14,01,54,9.10
2007,10,14,01,55,9.10
2007,10,14,01,56,9.10
2007,10,14,01,57,9.20
2007,10,14,01,58,9.20
2007,10,14,01,59,9.20
2007,10,14,02,00,9.20
2007,10,14,02,01,9.20
2007,10,14,02,02,9.20
2007,10,14,02,03,9.20
2007,10,14,02,04,9.20
2007,10,14,02,05,9.20
2007,10,14,02,06,9.20
2007,10,14,02,07,9.20
2007,10,14,02,08,9.20
2007,10,14,02,09,9.20
2007,10,14,02,10,9.20
2007,10,14,02,11,9.10
2007,10,14,02,12,9.10
2007,10,14,02,13,9.10
2007,10,14,02,14,9.10
2007,10,14,02,15,9.10
2007,10,14,02,16,9.10
2007,10,14,02,17,9.10
2007,10,14,02,18,9.10
2007,10,14,02,19,9.10
2007,10,14,02,20,9.00
2007,10,14,02,21,9.00
2007,10,14,02,22,9.00
2007,10,14,02,23,9.00
2007,10,14,02,24,9.00
2007,10,14,02,25,8.90
2007,10,14,02,26,8.90
2007,10,14,02,27,8.90
2007,10,14,02,28,8.90
2007,10,14,02,29,8.90
2007,10,14,02,30,8.90
2007,10,14,02,31,8.90
2007,10,14,02,32,8.90
2007,10,14,02,33,8.90
2007,10,14,02,34,8.80
2007,10,14,02,35,8.80
2007,10,14,02,36,8.80
2007,10,14,02,37,8.80
2007,10,14,02,38,8.70
2007,10,14,02,39,8.70
2007,10,14,02,40,8.70
2007,10,14,02,41,8.70
2007,10,14,02,42,8.70
2007,10,14,02,43,8.70
2007,10,14,02,44,8.70
2007,10,14,02,45,8.70
2007,10,14,02,46,8.70
2007,10,14,02,47,8.70
2007,10,14,02,48,8.70
2007,10,14,02,49,8.60
2007,10,14,02,50,8.60
2007,10,14,02,51,8.60
2007,10,14,02,52,8.60
2007,10,14,02,53,8.60
2007,10,14,02,54,8.60
2007,10,14,02,55,8.60
2007,10,14,02,56,8.60
2007,10,14,02,57,8.60
2007,10,14,02,58,8.60
2007,10,14,02,59,8.60
2007,10,14,03,00,8.60
2007,10,14,03,01,8.60
2007,10,14,03,02,8.60
2007,10,14,03,03,8.50
2007,10,14,03,04,8.50
2007,10,14,03,05,8.50
2007,10,14,03,06,8.50
2007,10,14,03,07,8.50
2007,10,14,03,08,8.50
2007,10,14,03,09,8.50
2007,10,14,03,10,8.50
2007,10,14,03,11,8.50
2007,10,14,03,12,8.60
2007,10,14,03,13,8.60
2007,10,14,03,14,8.60
2007,10,14,03,15,8.60
2007,10,14,03,16,8.60
2007,10,14,03,17,8.60
2007,10,14,03,18,8.60
2007,10,14,03,19,8.60
2007,10,14,03,20,8.70
2007,10,14,03,21,8.60
2007,10,14,03,22,8.60
2007,10,14,03,23,8.60
2007,10,14,03,24,8.50
2007,10,14,03,25,8.50
2007,10,14,03,26,8.40
2007,10,14,03,27,8.40
2007,10,14,03,28,8.40
2007,10,14,03,29,8.40
2007,10,14,03,30,8.30
2007,10,14,03,31,8.30
2007,10,14,03,32,8.30
2007,10,14,03,33,8.30
2007,10,14,03,34,8.30
2007,10,14,03,35,8.30
2007,10,14,03,36,8.20
2007,10,14,03,37,8.20
2007,10,14,03,38,8.20
2007,10,14,03,39,8.20
2007,10,14,03,40,8.20
2007,10,14,03,41,8.20
2007,10,14,03,42,8.10
2007,10,14,03,43,8.10
2007,10,14,03,44,8.10
2007,10,14,03,45,8.10
2007,10,14,03,46,8.10
2007,10,14,03,47,8.10
2007,10,14,03,48,8.10
2007,10,14,03,49,8.10
2007,10,14,03,50,8.10
2007,10,14,03,51,8.10
2007,10,14,03,52,8.10
2007,10,14,03,53,8.10
2007,10,14,03,54,8.10
2007,10,14,03,55,8.10
2007,10,14,03,56,8.10
2007,10,14,03,57,8.00
2007,10,14,03,58,8.00
2007,10,14,03,59,8.00
2007,10,14,04,00,8.00
2007,10,14,04,01,7.90
2007,10,14,04,02,7.90
2007,10,14,04,03,7.90
2007,10,14,04,04,7.90
2007,10,14,04,05,7.80
2007,10,14,04,06,7.80
2007,10,14,04,07,7.80
2007,10,14,04,08,7.80
2007,10,14,04,11,7.80
2007,10,14,04,12,7.80
2007,10,14,04,13,7.80
2007,10,14,04,15,7.80
2007,10,14,04,18,7.80
2007,10,14,04,19,7.80
2007,10,14,04,20,7.80
2007,10,14,04,21,7.80
2007,10,14,04,22,7.80
2007,10,14,04,23,7.80
2007,10,14,04,24,7.80
2007,10,14,04,25,7.80
2007,10,14,04,26,7.80
2007,10,14,04,27,7.90
2007,10,14,04,28,7.90
2007,10,14,04,29,7.90
2007,10,14,04,30,7.90
2007,10,14,04,31,7.90
2007,10,14,04,36,7.90
2007,10,14,04,40,7.80
2007,10,14,04,41,7.80
2007,10,14,04,50,7.70
2007,10,14,04,51,7.70
2007,10,14,04,52,7.70
2007,10,14,04,53,7.70
2007,10,14,04,54,7.70
2007,10,14,04,55,7.70
2007,10,14,04,56,7.80
2007,10,14,04,57,7.80
2007,10,14,04,58,7.80
2007,10,14,04,59,7.80
2007,10,14,05,09,7.70
2007,10,14,05,11,7.60
2007,10,14,05,18,7.30
2007,10,14,05,29,7.10
2007,10,14,05,31,7.00
2007,10,14,05,42,6.70
2007,10,14,05,51,6.80
2007,10,14,05,52,6.80
2007,10,14,05,53,6.80
2007,10,14,05,54,6.80
2007,10,14,05,55,6.80
2007,10,14,05,56,6.80
2007,10,14,05,57,6.90
2007,10,14,05,58,6.80
2007,10,14,05,59,6.90
2007,10,14,06,00,6.90
2007,10,14,06,01,6.90
2007,10,14,06,02,6.90
2007,10,14,06,03,6.90
2007,10,14,06,04,6.90
2007,10,14,06,05,6.90
2007,10,14,06,06,6.90
2007,10,14,06,07,6.90
2007,10,14,06,08,6.90
2007,10,14,06,09,6.90
2007,10,14,06,10,6.90
2007,10,14,06,11,6.80
2007,10,14,06,12,6.80
2007,10,14,06,13,6.80
2007,10,14,06,14,6.70
2007,10,14,06,15,6.70
2007,10,14,06,16,6.60
2007,10,14,06,17,6.60
2007,10,14,06,18,6.60
2007,10,14,06,19,6.60
2007,10,14,06,20,6.50
2007,10,14,06,21,6.50
2007,10,14,06,22,6.50
2007,10,14,06,23,6.50
2007,10,14,06,24,6.40
2007,10,14,06,25,6.40
2007,10,14,06,26,6.40
2007,10,14,06,27,6.40
2007,10,14,06,28,6.40
2007,10,14,06,29,6.40
2007,10,14,06,30,6.40
2007,10,14,06,31,6.40
2007,10,14,06,32,6.40
2007,10,14,06,33,6.30
2007,10,14,06,34,6.30
2007,10,14,06,35,6.30
2007,10,14,06,36,6.30
2007,10,14,06,37,6.30
2007,10,14,06,38,6.40
2007,10,14,06,39,6.40
2007,10,14,06,40,6.40
2007,10,14,06,41,6.40
2007,10,14,06,42,6.40
2007,10,14,06,43,6.40
2007,10,14,06,44,6.40
2007,10,14,06,45,6.40
2007,10,14,06,46,6.30
2007,10,14,06,47,6.30
2007,10,14,06,48,6.30
2007,10,14,06,49,6.30
2007,10,14,06,50,6.30
2007,10,14,06,51,6.40
2007,10,14,06,52,6.40
2007,10,14,06,53,6.40
2007,10,14,06,54,6.50
2007,10,14,06,55,6.50
2007,10,14,06,56,6.50
2007,10,14,06,57,6.60
2007,10,14,06,58,6.60
2007,10,14,06,59,6.70
2007,10,14,07,00,6.70
2007,10,14,07,01,6.80
2007,10,14,07,02,6.80
2007,10,14,07,03,6.80
2007,10,14,07,04,6.90
2007,10,14,07,05,6.90
2007,10,14,07,06,6.90
2007,10,14,07,07,7.00
2007,10,14,07,08,7.10
2007,10,14,07,09,7.20
2007,10,14,07,10,7.20
2007,10,14,07,11,7.20
2007,10,14,07,12,7.30
2007,10,14,07,13,7.30
2007,10,14,07,14,7.40
2007,10,14,07,15,7.40
2007,10,14,07,16,7.50
2007,10,14,07,17,7.50
2007,10,14,07,18,7.50
2007,10,14,07,19,7.60
2007,10,14,07,20,7.60
2007,10,14,07,21,7.70
2007,10,14,07,22,7.70
2007,10,14,07,23,7.70
2007,10,14,07,24,7.70
2007,10,14,07,25,7.80
2007,10,14,07,26,7.80
2007,10,14,07,27,7.80
2007,10,14,07,28,7.80
2007,10,14,07,29,7.80
2007,10,14,07,30,7.80
2007,10,14,07,31,7.90
2007,10,14,07,32,7.90
2007,10,14,07,33,7.80
2007,10,14,07,34,7.80
2007,10,14,07,35,7.80
2007,10,14,07,36,7.80
2007,10,14,07,37,7.80
2007,10,14,07,38,7.90
2007,10,14,07,39,7.90
2007,10,14,07,40,7.90
2007,10,14,07,41,7.90
2007,10,14,07,42,7.90
2007,10,14,07,43,7.90
2007,10,14,07,44,7.90
2007,10,14,07,45,7.90
2007,10,14,07,46,7.90
2007,10,14,07,47,7.90
2007,10,14,07,48,7.90
2007,10,14,07,49,7.90
2007,10,14,07,50,7.90
2007,10,14,07,51,7.90
2007,10,14,07,52,7.80
2007,10,14,07,53,7.80
2007,10,14,07,54,7.80
2007,10,14,07,55,7.80
2007,10,14,07,56,7.80
2007,10,14,07,57,7.80
2007,10,14,07,58,7.70
2007,10,14,07,59,7.70
2007,10,14,08,00,7.70
2007,10,14,08,01,7.70
2007,10,14,08,02,7.70
2007,10,14,08,03,7.60
2007,10,14,08,04,7.60
2007,10,14,08,05,7.60
2007,10,14,08,06,7.60
2007,10,14,08,07,7.50
2007,10,14,08,08,7.50
2007,10,14,08,09,7.50
2007,10,14,08,10,7.50
2007,10,14,08,11,7.50
2007,10,14,08,12,7.50
2007,10,14,08,13,7.50
2007,10,14,08,14,7.50
2007,10,14,08,15,7.50
2007,10,14,08,16,7.60
2007,10,14,08,17,7.60
2007,10,14,08,18,7.60
2007,10,14,08,19,7.70
2007,10,14,08,20,7.70
2007,10,14,08,21,7.80
2007,10,14,08,22,7.80
2007,10,14,08,23,7.90
2007,10,14,08,24,7.90
2007,10,14,08,25,8.00
2007,10,14,08,26,8.00
2007,10,14,08,27,8.10
2007,10,14,08,28,8.20
2007,10,14,08,29,8.20
2007,10,14,08,30,8.30
2007,10,14,08,31,8.30
2007,10,14,08,32,8.40
2007,10,14,08,33,8.50
2007,10,14,08,34,8.60
2007,10,14,08,35,8.60
2007,10,14,08,36,8.70
2007,10,14,08,37,8.80
2007,10,14,08,38,8.80
2007,10,14,08,39,8.90
2007,10,14,08,40,8.90
2007,10,14,08,41,9.00
2007,10,14,08,42,9.00
2007,10,14,08,43,9.10
2007,10,14,08,44,9.10
2007,10,14,08,45,9.20
2007,10,14,08,46,9.30
2007,10,14,08,47,9.30
2007,10,14,08,48,9.30
2007,10,14,08,49,9.40
2007,10,14,08,50,9.40
2007,10,14,08,51,9.50
2007,10,14,08,52,9.60
2007,10,14,08,53,9.60
2007,10,14,08,54,9.60
2007,10,14,08,55,9.70
2007,10,14,08,56,9.70
2007,10,14,08,57,9.70
2007,10,14,08,58,9.80
2007,10,14,08,59,9.80
2007,10,14,09,00,9.80
2007,10,14,09,01,9.80
2007,10,14,09,02,9.90
2007,10,14,09,03,9.90
2007,10,14,09,04,9.90
2007,10,14,09,05,9.90
2007,10,14,09,06,10.00
2007,10,14,09,07,10.00
2007,10,14,09,08,10.00
2007,10,14,09,09,10.10
2007,10,14,09,10,10.10
2007,10,14,09,11,10.10
2007,10,14,09,12,10.20
2007,10,14,09,13,10.20
2007,10,14,09,14,10.20
2007,10,14,09,15,10.20
2007,10,14,09,16,10.30
2007,10,14,09,17,10.30
2007,10,14,09,18,10.30
2007,10,14,09,19,10.30
2007,10,14,09,20,10.30
2007,10,14,09,21,10.30
2007,10,14,09,22,10.40
2007,10,14,09,23,10.40
2007,10,14,09,24,10.40
2007,10,14,09,25,10.40
2007,10,14,09,26,10.40
2007,10,14,09,27,10.50
2007,10,14,09,28,10.50
2007,10,14,09,29,10.50
2007,10,14,09,30,10.60
2007,10,14,09,31,10.60
2007,10,14,09,32,10.70
2007,10,14,09,33,10.70
2007,10,14,09,34,10.80
2007,10,14,09,35,10.80
2007,10,14,09,36,10.80
2007,10,14,09,37,10.90
2007,10,14,09,38,10.90
2007,10,14,09,39,10.90
2007,10,14,09,40,11.00
2007,10,14,09,41,11.00
2007,10,14,09,42,11.00
2007,10,14,09,43,11.10
2007,10,14,09,44,11.10
2007,10,14,09,45,11.10
2007,10,14,09,46,11.20
2007,10,14,09,47,11.20
2007,10,14,09,48,11.20
2007,10,14,09,49,11.30
2007,10,14,09,50,11.30
2007,10,14,09,51,11.30
2007,10,14,09,52,11.40
2007,10,14,09,53,11.40
2007,10,14,09,54,11.40
2007,10,14,09,55,11.50
2007,10,14,09,56,11.60
2007,10,14,09,57,11.60
2007,10,14,09,58,11.60
2007,10,14,09,59,11.70
2007,10,14,10,00,11.70
2007,10,14,10,01,11.80
2007,10,14,10,02,11.80
2007,10,14,10,03,11.90
2007,10,14,10,04,11.90
2007,10,14,10,05,11.90
2007,10,14,10,06,11.90
2007,10,14,10,07,11.90
2007,10,14,10,08,11.90
2007,10,14,10,09,12.00
2007,10,14,10,10,12.00
2007,10,14,10,11,12.10
2007,10,14,10,12,12.10
2007,10,14,10,13,12.10
2007,10,14,10,14,12.10
2007,10,14,10,15,12.20
2007,10,14,10,16,12.20
2007,10,14,10,17,12.20
2007,10,14,10,18,12.10
2007,10,14,10,19,12.10
2007,10,14,10,20,12.10
2007,10,14,10,21,12.10
2007,10,14,10,22,12.10
2007,10,14,10,23,12.10
2007,10,14,10,24,12.10
2007,10,14,10,25,12.10
2007,10,14,10,26,12.00
2007,10,14,10,27,12.00
2007,10,14,10,28,12.00
2007,10,14,10,29,12.00
2007,10,14,10,30,11.90
2007,10,14,10,31,11.90
2007,10,14,10,32,11.90
2007,10,14,10,33,11.90
2007,10,14,10,34,11.90
2007,10,14,10,35,11.80
2007,10,14,10,36,11.80
2007,10,14,10,37,11.80
2007,10,14,10,38,11.80
2007,10,14,10,39,11.80
2007,10,14,10,40,11.80
2007,10,14,10,41,11.80
2007,10,14,10,42,11.80
2007,10,14,10,43,11.80
2007,10,14,10,44,11.70
2007,10,14,10,45,11.70
2007,10,14,10,46,11.70
2007,10,14,10,47,11.70
2007,10,14,10,48,11.60
2007,10,14,10,49,11.60
2007,10,14,10,50,11.60
2007,10,14,10,51,11.60
2007,10,14,10,52,11.60
2007,10,14,10,53,11.60
2007,10,14,10,54,11.50
2007,10,14,10,55,11.50
2007,10,14,10,56,11.50
2007,10,14,10,57,11.50
2007,10,14,10,58,11.50
2007,10,14,10,59,11.50
2007,10,14,11,00,11.50
2007,10,14,11,01,11.60
2007,10,14,11,02,11.60
2007,10,14,11,03,11.60
2007,10,14,11,04,11.60
2007,10,14,11,05,11.60
2007,10,14,11,06,11.70
2007,10,14,11,07,11.70
2007,10,14,11,08,11.80
2007,10,14,11,09,11.80
2007,10,14,11,10,11.90
2007,10,14,11,11,11.90
2007,10,14,11,12,11.90
2007,10,14,11,13,12.00
2007,10,14,11,14,12.00
2007,10,14,11,15,12.00
2007,10,14,11,16,12.00
2007,10,14,11,17,12.00
2007,10,14,11,18,12.00
2007,10,14,11,19,12.00
2007,10,14,11,20,12.10
2007,10,14,11,21,12.10
2007,10,14,11,22,12.20
2007,10,14,11,23,12.20
2007,10,14,11,24,12.20
2007,10,14,11,25,12.30
2007,10,14,11,26,12.30
2007,10,14,11,27,12.40
2007,10,14,11,28,12.40
2007,10,14,11,29,12.40
2007,10,14,11,30,12.40
2007,10,14,11,31,12.40
2007,10,14,11,32,12.40
2007,10,14,11,33,12.40
2007,10,14,11,34,12.40
2007,10,14,11,35,12.40
2007,10,14,11,36,12.40
2007,10,14,11,37,12.40
2007,10,14,11,38,12.40
2007,10,14,11,39,12.40
2007,10,14,11,40,12.40
2007,10,14,11,41,12.40
2007,10,14,11,42,12.40
2007,10,14,11,43,12.40
2007,10,14,11,44,12.40
2007,10,14,11,45,12.40
2007,10,14,11,46,12.30
2007,10,14,11,47,12.30
2007,10,14,11,48,12.30
2007,10,14,11,49,12.30
2007,10,14,11,50,12.20
2007,10,14,11,51,12.20
2007,10,14,11,52,12.20
2007,10,14,11,53,12.30
2007,10,14,11,54,12.20
2007,10,14,11,55,12.30
2007,10,14,11,56,12.20
2007,10,14,11,57,12.30
2007,10,14,11,58,12.20
2007,10,14,11,59,12.20
2007,10,14,12,00,12.30
2007,10,14,12,01,12.30
2007,10,14,12,02,12.30
2007,10,14,12,03,12.30
2007,10,14,12,04,12.30
2007,10,14,12,05,12.30
2007,10,14,12,06,12.30
2007,10,14,12,07,12.30
2007,10,14,12,08,12.30
2007,10,14,12,09,12.30
2007,10,14,12,10,12.30
2007,10,14,12,11,12.30
2007,10,14,12,12,12.30
2007,10,14,12,13,12.30
2007,10,14,12,14,12.30
2007,10,14,12,15,12.30
2007,10,14,12,16,12.30
2007,10,14,12,17,12.30
2007,10,14,12,18,12.30
2007,10,14,12,19,12.30
2007,10,14,12,20,12.40
2007,10,14,12,21,12.40
2007,10,14,12,22,12.40
2007,10,14,12,23,12.40
2007,10,14,12,24,12.40
2007,10,14,12,25,12.40
2007,10,14,12,26,12.40
2007,10,14,12,27,12.40
2007,10,14,12,28,12.40
2007,10,14,12,29,12.40
2007,10,14,12,30,12.40
2007,10,14,12,31,12.40
2007,10,14,12,32,12.40
2007,10,14,12,33,12.40
2007,10,14,12,34,12.40
2007,10,14,12,35,12.50
2007,10,14,12,36,12.50
2007,10,14,12,37,12.50
2007,10,14,12,38,12.50
2007,10,14,12,39,12.50
2007,10,14,12,40,12.50
2007,10,14,12,41,12.60
2007,10,14,12,42,12.60
2007,10,14,12,43,12.60
2007,10,14,12,44,12.60
2007,10,14,12,45,12.60
2007,10,14,12,46,12.60
2007,10,14,12,47,12.60
2007,10,14,12,48,12.60
2007,10,14,12,49,12.60
2007,10,14,12,50,12.60
2007,10,14,12,51,12.60
2007,10,14,12,52,12.60
2007,10,14,12,53,12.60
2007,10,14,12,54,12.60
2007,10,14,12,55,12.60
2007,10,14,12,56,12.60
2007,10,14,12,57,12.60
2007,10,14,12,58,12.60
2007,10,14,12,59,12.60
2007,10,14,13,00,12.60
2007,10,14,13,01,12.60
2007,10,14,13,02,12.60
2007,10,14,13,03,12.60
2007,10,14,13,04,12.60
2007,10,14,13,05,12.60
2007,10,14,13,06,12.60
2007,10,14,13,07,12.60
2007,10,14,13,08,12.60
2007,10,14,13,09,12.60
2007,10,14,13,10,12.70
2007,10,14,13,11,12.70
2007,10,14,13,12,12.70
2007,10,14,13,13,12.70
2007,10,14,13,14,12.70
2007,10,14,13,15,12.70
2007,10,14,13,16,12.70
2007,10,14,13,17,12.70
2007,10,14,13,18,12.70
2007,10,14,13,19,12.70
2007,10,14,13,20,12.80
2007,10,14,13,21,12.70
2007,10,14,13,22,12.70
2007,10,14,13,23,12.80
2007,10,14,13,24,12.80
2007,10,14,13,25,12.80
2007,10,14,13,26,12.80
2007,10,14,13,27,12.70
2007,10,14,13,28,12.70
2007,10,14,13,29,12.80
2007,10,14,13,30,12.80
2007,10,14,13,31,12.80
2007,10,14,13,32,12.80
2007,10,14,13,33,12.80
2007,10,14,13,34,12.80
2007,10,14,13,35,12.80
2007,10,14,13,36,12.80
2007,10,14,13,37,12.80
2007,10,14,13,38,12.80
2007,10,14,13,39,12.80
2007,10,14,13,40,12.80
2007,10,14,13,41,12.80
2007,10,14,13,42,12.90
2007,10,14,13,43,12.90
2007,10,14,13,44,12.90
2007,10,14,13,45,12.90
2007,10,14,13,46,13.00
2007,10,14,13,47,13.10
2007,10,14,13,48,13.10
2007,10,14,13,49,13.10
2007,10,14,13,50,13.20
2007,10,14,13,51,13.20
2007,10,14,13,52,13.20
2007,10,14,13,53,13.20
2007,10,14,13,54,13.20
2007,10,14,13,55,13.20
2007,10,14,13,56,13.20
2007,10,14,13,57,13.20
2007,10,14,13,58,13.20
2007,10,14,13,59,13.20
2007,10,14,14,00,13.20
2007,10,14,14,01,13.20
2007,10,14,14,02,13.30
2007,10,14,14,03,13.30
2007,10,14,14,04,13.30
2007,10,14,14,05,13.40
2007,10,14,14,06,13.50
2007,10,14,14,07,13.50
2007,10,14,14,08,13.60
2007,10,14,14,09,13.60
2007,10,14,14,10,13.60
2007,10,14,14,11,13.60
2007,10,14,14,12,13.60
2007,10,14,14,13,13.60
2007,10,14,14,14,13.60
2007,10,14,14,15,13.60
2007,10,14,14,16,13.60
2007,10,14,14,17,13.60
2007,10,14,14,18,13.60
2007,10,14,14,19,13.50
2007,10,14,14,20,13.50
2007,10,14,14,21,13.60
2007,10,14,14,22,13.60
2007,10,14,14,23,13.60
2007,10,14,14,24,13.60
2007,10,14,14,25,13.60
2007,10,14,14,26,13.60
2007,10,14,14,27,13.70
2007,10,14,14,28,13.70
2007,10,14,14,29,13.70
2007,10,14,14,30,13.80
2007,10,14,14,31,13.80
2007,10,14,14,32,13.80
2007,10,14,14,33,13.80
2007,10,14,14,34,13.80
2007,10,14,14,35,13.80
2007,10,14,14,36,13.80
2007,10,14,14,37,13.90
2007,10,14,14,38,13.90
2007,10,14,14,39,13.90
2007,10,14,14,40,13.90
2007,10,14,14,41,14.00
2007,10,14,14,42,14.00
2007,10,14,14,43,14.00
2007,10,14,14,44,14.00
2007,10,14,14,45,14.00
2007,10,14,14,46,14.00
2007,10,14,14,47,14.00
2007,10,14,14,48,14.00
2007,10,14,14,49,14.00
2007,10,14,14,50,14.00
2007,10,14,14,51,14.00
2007,10,14,14,52,14.00
2007,10,14,14,53,13.90
2007,10,14,14,54,13.90
2007,10,14,14,55,13.90
2007,10,14,14,56,13.90
2007,10,14,14,57,13.80
2007,10,14,14,58,13.80
2007,10,14,14,59,13.80
2007,10,14,15,00,13.80
2007,10,14,15,01,13.80
2007,10,14,15,02,13.80
2007,10,14,15,03,13.80
2007,10,14,15,04,13.80
2007,10,14,15,05,13.80
2007,10,14,15,06,13.80
2007,10,14,15,07,13.80
2007,10,14,15,08,13.80
2007,10,14,15,09,13.90
2007,10,14,15,10,13.90
2007,10,14,15,11,13.90
2007,10,14,15,12,13.90
2007,10,14,15,13,13.90
2007,10,14,15,14,13.90
2007,10,14,15,15,13.90
2007,10,14,15,16,13.90
2007,10,14,15,17,13.90
2007,10,14,15,18,13.90
2007,10,14,15,19,13.90
2007,10,14,15,20,13.80
2007,10,14,15,21,13.80
2007,10,14,15,22,13.80
2007,10,14,15,23,13.80
2007,10,14,15,24,13.80
2007,10,14,15,25,13.80
2007,10,14,15,26,13.70
2007,10,14,15,27,13.70
2007,10,14,15,28,13.70
2007,10,14,15,29,13.70
2007,10,14,15,30,13.70
2007,10,14,15,31,13.70
2007,10,14,15,32,13.70
2007,10,14,15,33,13.70
2007,10,14,15,34,13.60
2007,10,14,15,35,13.60
2007,10,14,15,36,13.60
2007,10,14,15,37,13.60
2007,10,14,15,38,13.60
2007,10,14,15,39,13.60
2007,10,14,15,40,13.60
2007,10,14,15,41,13.60
2007,10,14,15,42,13.60
2007,10,14,15,43,13.50
2007,10,14,15,44,13.50
2007,10,14,15,45,13.50
2007,10,14,15,46,13.40
2007,10,14,15,47,13.40
2007,10,14,15,48,13.40
2007,10,14,15,49,13.40
2007,10,14,15,50,13.40
2007,10,14,15,51,13.50
2007,10,14,15,52,13.50
2007,10,14,15,53,13.50
2007,10,14,15,54,13.50
2007,10,14,15,55,13.50
2007,10,14,15,56,13.50
2007,10,14,15,57,13.50
2007,10,14,15,58,13.50
2007,10,14,15,59,13.60
2007,10,14,16,00,13.60
2007,10,14,16,01,13.60
2007,10,14,16,02,13.60
2007,10,14,16,03,13.60
2007,10,14,16,04,13.60
2007,10,14,16,05,13.60
2007,10,14,16,06,13.60
2007,10,14,16,07,13.60
2007,10,14,16,08,13.60
2007,10,14,16,09,13.60
2007,10,14,16,10,13.60
2007,10,14,16,11,13.60
2007,10,14,16,12,13.60
2007,10,14,16,13,13.60
2007,10,14,16,14,13.60
2007,10,14,16,15,13.60
2007,10,14,16,16,13.60
2007,10,14,16,17,13.60
2007,10,14,16,18,13.60
2007,10,14,16,19,13.60
2007,10,14,16,20,13.60
2007,10,14,16,21,13.60
2007,10,14,16,22,13.60
2007,10,14,16,23,13.60
2007,10,14,16,24,13.60
2007,10,14,16,25,13.60
2007,10,14,16,26,13.70
2007,10,14,16,27,13.70
2007,10,14,16,28,13.70
2007,10,14,16,29,13.70
2007,10,14,16,30,13.80
2007,10,14,16,31,13.80
2007,10,14,16,32,13.80
2007,10,14,16,33,13.80
2007,10,14,16,34,13.80
2007,10,14,16,35,13.80
2007,10,14,16,36,13.80
2007,10,14,16,37,13.80
2007,10,14,16,38,13.80
2007,10,14,16,39,13.80
2007,10,14,16,40,13.80
2007,10,14,16,41,13.80
2007,10,14,16,42,13.80
2007,10,14,16,43,13.80
2007,10,14,16,44,13.80
2007,10,14,16,45,13.80
2007,10,14,16,46,13.80
2007,10,14,16,47,13.80
2007,10,14,16,48,13.80
2007,10,14,16,49,13.80
2007,10,14,16,50,13.80
2007,10,14,16,51,13.80
2007,10,14,16,52,13.80
2007,10,14,16,53,13.80
2007,10,14,16,54,13.70
2007,10,14,16,55,13.70
2007,10,14,16,56,13.70
2007,10,14,16,57,13.70
2007,10,14,16,58,13.70
2007,10,14,16,59,13.60
2007,10,14,17,00,13.60
2007,10,14,17,01,13.60
2007,10,14,17,02,13.60
2007,10,14,17,03,13.50
2007,10,14,17,04,13.50
2007,10,14,17,05,13.50
2007,10,14,17,06,13.50
2007,10,14,17,07,13.50
2007,10,14,17,08,13.40
2007,10,14,17,09,13.40
2007,10,14,17,10,13.40
2007,10,14,17,11,13.40
2007,10,14,17,12,13.40
2007,10,14,17,13,13.40
2007,10,14,17,14,13.40
2007,10,14,17,15,13.40
2007,10,14,17,16,13.40
2007,10,14,17,17,13.30
2007,10,14,17,18,13.30
2007,10,14,17,19,13.30
2007,10,14,17,20,13.30
2007,10,14,17,21,13.30
2007,10,14,17,22,13.30
2007,10,14,17,23,13.30
2007,10,14,17,24,13.30
2007,10,14,17,25,13.30
2007,10,14,17,26,13.20
2007,10,14,17,27,13.20
2007,10,14,17,28,13.20
2007,10,14,17,29,13.20
2007,10,14,17,30,13.20
2007,10,14,17,31,13.20
2007,10,14,17,32,13.20
2007,10,14,17,33,13.10
2007,10,14,17,34,13.10
2007,10,14,17,35,13.10
2007,10,14,17,36,13.10
2007,10,14,17,37,13.10
2007,10,14,17,38,13.00
2007,10,14,17,39,13.00
2007,10,14,17,40,13.00
2007,10,14,17,41,13.00
2007,10,14,17,42,12.90
2007,10,14,17,43,12.90
2007,10,14,17,44,12.90
2007,10,14,17,45,12.90
2007,10,14,17,46,12.80
2007,10,14,17,47,12.80
2007,10,14,17,48,12.80
2007,10,14,17,49,12.80
2007,10,14,17,50,12.80
2007,10,14,17,51,12.80
2007,10,14,17,52,12.80
2007,10,14,17,53,12.80
2007,10,14,17,54,12.70
2007,10,14,17,55,12.70
2007,10,14,17,56,12.70
2007,10,14,17,57,12.70
2007,10,14,17,58,12.70
2007,10,14,17,59,12.60
2007,10,14,18,00,12.60
2007,10,14,18,01,12.60
2007,10,14,18,02,12.60
2007,10,14,18,03,12.60
2007,10,14,18,04,12.50
2007,10,14,18,05,12.50
2007,10,14,18,06,12.50
2007,10,14,18,07,12.50
2007,10,14,18,08,12.40
2007,10,14,18,09,12.40
2007,10,14,18,10,12.40
2007,10,14,18,11,12.30
2007,10,14,18,12,12.30
2007,10,14,18,13,12.30
2007,10,14,18,14,12.30
2007,10,14,18,15,12.30
2007,10,14,18,16,12.20
2007,10,14,18,17,12.20
2007,10,14,18,18,12.20
2007,10,14,18,19,12.20
2007,10,14,18,20,12.20
2007,10,14,18,21,12.20
2007,10,14,18,22,12.10
2007,10,14,18,23,12.10
2007,10,14,18,24,12.10
2007,10,14,18,25,12.10
2007,10,14,18,26,12.10
2007,10,14,18,27,12.10
2007,10,14,18,28,12.10
2007,10,14,18,29,12.00
2007,10,14,18,30,12.00
2007,10,14,18,31,12.00
2007,10,14,18,32,12.00
2007,10,14,18,33,11.90
2007,10,14,18,34,11.90
2007,10,14,18,35,11.90
2007,10,14,18,36,11.90
2007,10,14,18,37,11.90
2007,10,14,18,38,11.90
2007,10,14,18,39,11.90
2007,10,14,18,40,11.90
2007,10,14,18,41,11.90
2007,10,14,18,42,11.90
2007,10,14,18,43,11.90
2007,10,14,18,44,11.90
2007,10,14,18,45,11.80